GW2624 Weather Reports


time (UTC)temp
F
wind
direction
speed
knots
gust
knots
rain 1hr
in
rain 24hr
in
rain mn
in
humidity
%
barometer
mb
20260903175905 82 241 1.7 4.3 0.00 0.00 0.00 31 1008.8
20260903174405 81 300 0.9 2.6 0.00 0.00 0.00 34 1009.0
20260903173404 80 98 1.7 2.6 0.00 0.00 0.00 33 1009.0
20260903172904 80 246 1.7 2.6 0.00 0.00 0.00 35 1009.1
20260903170904 78 50 0.9 2.6 0.00 0.00 0.00 38 1009.0
20260903164904 77 319 0.9 5.2 0.00 0.00 0.00 42 1009.1
20260903163404 76 292 1.7 6.1 0.00 0.00 0.00 45 1009.0
20260903161904 76 146 1.7 5.2 0.00 0.00 0.00 45 1009.0
20260903160905 75 282 0.9 5.2 0.00 0.00 0.00 46 1009.0
20260903160404 74 220 1.7 2.6 0.00 0.00 0.00 46 1008.9
20260903155905 74 311 0.9 2.6 0.00 0.00 0.00 46 1008.9
20260903152905 70 228 0.9 2.6 0.00 0.00 0.00 53 1009.2
20260903151905 68 272 0.9 2.6 0.00 0.00 0.00 54 1009.3
20260903150404 66 247 0.9 2.6 0.00 0.00 0.00 54 1009.3
20260903145905 66 227 0.0 1.7 0.00 0.00 0.00 56 1009.4
20260903143904 63 207 0.0 1.7 0.00 0.00 0.00 61 1009.4
20260903142904 61 141 0.0 0.0 0.00 0.00 0.00 66 1009.4
20260903141404 58 141 0.0 0.0 0.00 0.00 0.00 73 1009.3
20260903140904 57 141 0.0 0.0 0.00 0.00 0.00 76 1009.3
20260903135905 55 141 0.0 0.0 0.00 0.00 0.00 79 1009.4
20260903135405 54 141 0.0 0.0 0.00 0.00 0.00 80 1009.4
20260903134904 54 141 0.0 0.0 0.00 0.00 0.00 81 1009.3
20260903133905 53 18 0.0 0.9 0.00 0.00 0.00 81 1009.4
20260903131905 52 141 0.0 0.0 0.00 0.00 0.00 80 1009.3
20260903131405 52 141 0.0 0.0 0.00 0.00 0.00 80 1009.2
20260903130404 52 141 0.0 0.0 0.00 0.00 0.00 79 1009.0
20260903125404 52 141 0.0 0.0 0.00 0.00 0.00 79 1008.9
20260903124904 52 141 0.0 0.9 0.00 0.00 0.00 79 1008.9
20260903124404 52 141 0.0 0.9 0.00 0.00 0.00 78 1008.8
20260903123404 52 141 0.0 0.0 0.00 0.00 0.00 78 1008.7
20260903121905 52 141 0.0 0.0 0.00 0.00 0.00 77 1008.6
20260903121405 52 141 0.0 0.0 0.00 0.00 0.00 77 1008.6
20260903120904 52 141 0.0 0.0 0.00 0.00 0.00 77 1008.5
20260903112905 53 141 0.0 1.7 0.00 0.00 0.00 73 1008.6
20260903111405 54 141 0.0 0.9 0.00 0.00 0.00 72 1008.4
20260903110905 54 0 0.0 0.9 0.00 0.00 0.00 72 1008.4
20260903110404 54 0 0.0 0.9 0.00 0.00 0.00 71 1008.4
20260903105905 54 0 0.0 0.0 0.00 0.00 0.00 70 1008.3
20260903104404 55 0 0.0 1.7 0.00 0.00 0.00 69 1008.3
20260903103404 55 0 0.0 1.7 0.00 0.00 0.00 67 1008.3
20260903102904 55 0 0.0 0.9 0.00 0.00 0.00 67 1008.2
20260903101905 56 0 0.9 1.7 0.00 0.00 0.00 64 1008.1
20260903100904 56 0 0.0 1.7 0.00 0.00 0.00 62 1008.0
20260903100405 56 0 0.9 2.6 0.00 0.00 0.00 61 1007.9
20260903095404 56 0 0.9 2.6 0.00 0.00 0.00 62 1007.8
20260903094904 56 0 0.9 2.6 0.00 0.00 0.00 62 1007.7
20260903094405 56 0 1.7 2.6 0.00 0.00 0.00 61 1007.8
20260903093905 56 0 0.9 2.6 0.00 0.00 0.00 62 1007.8
20260903093404 56 0 0.0 2.6 0.00 0.00 0.00 62 1007.8
20260903091405 56 0 0.0 0.9 0.00 0.00 0.00 62 1007.8
20260903090905 56 0 0.0 2.6 0.00 0.00 0.00 63 1007.9
20260903085904 57 0 0.9 2.6 0.00 0.00 0.00 63 1007.8
20260903084405 58 0 0.0 0.9 0.00 0.00 0.00 61 1007.8
20260903083905 58 0 0.0 0.9 0.00 0.00 0.00 61 1007.9
20260903082404 59 0 0.9 1.7 0.00 0.00 0.00 54 1007.8
20260903081905 59 0 0.9 0.9 0.00 0.00 0.00 54 1007.8
20260903080904 59 0 0.0 0.9 0.00 0.00 0.00 54 1007.9
20260903080405 59 0 0.0 1.7 0.00 0.00 0.00 55 1007.8
20260903074904 59 0 0.9 2.6 0.00 0.00 0.00 57 1007.7
20260903073905 59 0 0.0 2.6 0.00 0.00 0.00 56 1007.7
20260903072904 60 0 0.0 2.6 0.00 0.00 0.00 57 1007.8
20260903071905 60 0 0.0 1.7 0.00 0.00 0.00 54 1007.8
20260903071404 61 0 0.0 2.6 0.00 0.00 0.00 54 1007.8
20260903070405 61 0 0.0 2.6 0.00 0.00 0.00 53 1007.9
20260903065405 61 0 0.9 2.6 0.00 0.00 0.00 50 1007.8
20260903064404 61 0 1.7 2.6 0.00 0.00 0.00 54 1007.7
20260903063904 61 0 0.9 2.6 0.00 0.00 0.00 54 1007.7
20260903063404 61 0 0.0 1.7 0.00 0.00 0.00 52 1007.7
20260903062404 62 138 0.0 2.6 0.00 0.00 0.00 52 1007.8
20260903061405 62 138 1.7 4.3 0.00 0.00 0.00 52 1007.6
20260903060904 62 140 1.7 2.6 0.00 0.00 0.00 53 1007.6
20260903060405 62 155 1.7 2.6 0.00 0.00 0.00 53 1007.5
20260903055905 62 155 0.0 2.6 0.00 0.00 0.00 53 1007.5
20260903055404 62 155 0.0 2.6 0.00 0.00 0.00 54 1007.4
20260903054904 62 157 1.7 2.6 0.00 0.00 0.00 53 1007.4
20260903054404 62 130 1.7 2.6 0.00 0.00 0.00 55 1007.5
20260903053906 62 132 0.0 2.6 0.00 0.00 0.00 57 1007.4
20260903052904 63 138 0.0 0.9 0.00 0.00 0.00 55 1007.3
20260903051404 63 138 0.0 0.0 0.00 0.00 0.00 52 1007.4
20260903050905 63 138 0.0 0.0 0.00 0.00 0.00 53 1007.4
20260903045904 64 138 0.0 0.0 0.00 0.00 0.00 54 1007.4
20260903045405 64 138 0.0 0.0 0.00 0.00 0.00 53 1007.5
20260903044404 65 138 0.0 1.7 0.00 0.00 0.00 51 1007.4
20260903043405 66 138 0.0 0.9 0.00 0.00 0.00 50 1007.5
20260903042904 66 138 0.0 2.6 0.00 0.00 0.00 50 1007.5
20260903042405 66 138 0.9 2.6 0.00 0.00 0.00 49 1007.5
20260903040404 66 140 0.9 2.6 0.00 0.00 0.00 49 1007.6
20260903034905 66 148 0.0 2.6 0.00 0.00 0.00 49 1007.3
20260903033905 66 144 1.7 2.6 0.00 0.00 0.00 49 1007.2
20260903031904 67 145 0.9 2.6 0.00 0.00 0.00 49 1007.0
20260903024404 67 175 0.0 0.9 0.00 0.00 0.00 52 1006.5
20260903023405 68 175 0.0 1.7 0.00 0.00 0.00 49 1006.4
20260903022904 69 175 0.0 1.7 0.00 0.00 0.00 48 1006.5
20260903020405 73 175 0.0 0.0 0.00 0.00 0.00 38 1006.3
20260903015905 74 175 0.0 0.0 0.00 0.00 0.00 37 1006.2
20260903014405 76 175 0.0 0.0 0.00 0.00 0.00 33 1006.2
20260903013404 77 175 0.0 0.9 0.00 0.00 0.00 31 1006.2
20260903011404 79 192 0.9 5.2 0.00 0.00 0.00 27 1006.2
20260903010405 80 199 2.6 7.8 0.00 0.00 0.00 27 1006.1
20260903005904 80 214 2.6 7.8 0.00 0.00 0.00 27 1006.1
20260903002904 81 216 1.7 5.2 0.00 0.00 0.00 28 1006.1
20260903002405 80 218 1.7 5.2 0.00 0.00 0.00 28 1006.1
20260903001405 81 204 2.6 7.0 0.00 0.00 0.00 27 1006.2
20260903000905 82 200 2.6 7.0 0.00 0.00 0.00 26 1006.2
20260902234904 81 235 1.7 4.3 0.00 0.00 0.00 27 1006.2
20260902233404 81 169 0.9 5.2 0.00 0.00 0.00 28 1006.3
20260902232904 81 156 2.6 5.2 0.00 0.00 0.00 28 1006.3
20260902232404 81 202 1.7 5.2 0.00 0.00 0.00 28 1006.4
20260902230905 83 210 2.6 7.8 0.00 0.00 0.00 27 1006.5
20260902225904 82 177 1.7 7.8 0.00 0.00 0.00 27 1006.4
20260902224405 83 213 4.3 7.8 0.00 0.00 0.00 26 1006.5
20260902214404 84 226 4.3 13.0 0.00 0.00 0.00 26 1006.9
20260902213404 85 149 5.2 11.3 0.00 0.00 0.00 25 1007.0
20260902212904 84 176 2.6 10.4 0.00 0.00 0.00 26 1007.2
20260902212404 84 201 3.5 12.2 0.00 0.00 0.00 26 1007.3
20260902211904 83 180 4.3 12.2 0.00 0.00 0.00 26 1007.4
20260902203904 80 273 0.9 6.1 0.00 0.00 0.00 37 1008.1
20260902203405 80 221 2.6 6.1 0.00 0.00 0.00 33 1008.2
20260902202904 80 251 0.9 4.3 0.00 0.00 0.00 36 1008.3
20260902202404 80 285 1.7 4.3 0.00 0.00 0.00 34 1008.3
20260902201904 80 7 0.9 1.7 0.00 0.00 0.00 38 1008.4
20260902194905 81 207 2.6 7.8 0.00 0.00 0.00 33 1008.7
20260902193904 83 177 2.6 8.7 0.00 0.00 0.00 33 1008.8
20260902192404 82 184 1.7 7.8 0.00 0.00 0.00 32 1009.2
20260902190905 82 164 0.9 4.3 0.00 0.00 0.00 32 1009.1
20260902185904 81 253 1.7 2.6 0.00 0.00 0.00 34 1009.4
20260902184905 82 190 0.9 5.2 0.00 0.00 0.00 33 1009.6
20260902183904 82 289 1.7 6.1 0.00 0.00 0.00 34 1009.9
20260902183404 82 174 1.7 6.1 0.00 0.00 0.00 31 1010.0
20260902182404 82 234 0.9 2.6 0.00 0.00 0.00 33 1010.2
20260902181404 81 185 0.9 2.6 0.00 0.00 0.00 33 1010.5